Tracking 33198 objects as of 14-Feb-2026
HD Live streaming from Space Station
objects crossing your sky now

STARLINK-5320

Track STARLINK-5320 now!
10-day predictions
STARLINK-5320 is classified as:


NORAD ID: 55289
Int'l Code: 2023-010W
Perigee: 577.0 km
Apogee: 581.4 km
Inclination: 70.0 °
Period: 96.1 minutes
Semi major axis: 6950 km
RCS: Unknown
Launch date: January 19, 2023
Source: United States (US)
Launch site: AIR FORCE WESTERN TEST RANGE (AFWTR)
Your satellite tracking list
Your tracking list is empty




NASA's NSSDC Master Catalog

Two Line Element Set (TLE):
1 55289U 23010W   26044.56667386 -.00000031  00000-0  52164-5 0  9996
2 55289  69.9993  85.3681 0003200 269.2990  90.7802 14.98330965169650
Source of the keplerian elements: AFSPC